AI5KP-13 Weather Reports


time (UTC)temp
F
wind
direction
speed
knots
gust
knots
rain 1hr
in
rain 24hr
in
rain mn
in
humidity
%
barometer
mb
20260506051220 49 31 2.6 3.5 0.00 0.00 0.00 93 1011.2
20260506050718 49 56 2.6 5.2 0.00 0.00 0.00 93 1011.4
20260506050215 48 24 2.6 3.5 0.00 0.00 0.00 94 1011.1
20260506044706 48 26 3.5 5.2 0.00 0.00 0.00 94 1011.0
20260506044203 48 51 0.9 1.7 0.00 0.00 0.00 94 1011.0
20260506043700 48 29 2.6 2.6 0.00 0.00 0.00 94 1011.0
20260506043158 48 323 3.5 3.5 0.00 0.00 0.00 94 1011.0
20260506042657 48 13 5.2 7.8 0.00 0.00 0.00 94 1011.1
20260506042154 49 337 3.5 5.2 0.00 0.00 0.00 93 1011.1
20260506041647 49 3 3.5 5.2 0.00 0.00 0.00 93 1011.0
20260506041143 49 9 1.7 2.6 0.00 0.00 0.00 91 1010.9
20260506040641 50 40 3.5 5.2 0.00 0.00 0.00 91 1010.7
20260506040138 50 50 2.6 3.5 0.00 0.00 0.00 91 1010.7
20260506035635 50 28 2.6 2.6 0.00 0.01 0.01 90 1010.5
20260506035131 50 40 5.2 6.1 0.00 0.01 0.01 90 1010.7
20260506034629 50 35 2.6 3.5 0.00 0.01 0.01 90 1010.5
20260506034125 50 41 0.9 0.9 0.00 0.01 0.01 90 1010.6
20260506033623 50 35 1.7 2.6 0.00 0.01 0.01 90 1010.6
20260506033119 50 11 2.6 2.6 0.00 0.01 0.01 90 1010.5
20260506032617 50 81 3.5 6.1 0.00 0.01 0.01 90 1010.5
20260506032114 50 52 5.2 7.0 0.00 0.01 0.01 91 1010.3
20260506031611 50 10 5.2 6.1 0.00 0.01 0.01 91 1010.0
20260506031108 50 50 3.5 5.2 0.00 0.01 0.01 92 1010.0
20260506030606 50 13 6.1 11.3 0.00 0.01 0.01 92 1010.0
20260506030103 50 34 2.6 5.2 0.00 0.01 0.01 92 1009.8
20260506025600 50 33 7.8 11.3 0.00 0.01 0.01 91 1009.3
20260506025056 50 68 0.9 1.7 0.00 0.01 0.01 91 1009.2
20260506024553 50 8 6.1 9.6 0.00 0.01 0.01 91 1009.1
20260506024049 50 70 1.7 2.6 0.00 0.01 0.01 92 1008.9
20260506023545 50 85 2.6 3.5 0.00 0.01 0.01 92 1008.9
20260506023043 50 28 5.2 7.0 0.00 0.01 0.01 92 1008.8
20260506022540 50 31 1.7 1.7 0.00 0.01 0.01 92 1008.6
20260506022038 50 45 1.7 1.7 0.00 0.01 0.01 92 1008.8
20260506021535 50 14 7.0 7.0 0.00 0.01 0.01 92 1008.6
20260506021032 50 325 2.6 3.5 0.00 0.01 0.01 92 1008.7
20260506020530 50 91 3.5 5.2 0.00 0.01 0.01 92 1008.5
20260506020027 50 13 4.3 7.0 0.00 0.01 0.01 92 1008.7
20260506015525 50 341 0.9 1.7 0.00 0.01 0.01 93 1008.7
20260506015021 50 53 2.6 3.5 0.00 0.01 0.01 94 1008.7
20260506014519 50 18 5.2 7.0 0.00 0.01 0.01 94 1008.7
20260506014014 50 35 0.9 3.5 0.00 0.01 0.01 94 1008.7
20260506013513 50 343 5.2 7.8 0.00 0.01 0.01 94 1008.7
20260506013009 50 14 2.6 3.5 0.00 0.01 0.01 93 1008.6
20260506012505 50 27 2.6 3.5 0.00 0.01 0.01 93 1008.6
20260506012002 50 16 7.8 8.7 0.00 0.01 0.01 93 1008.7
20260506011500 50 9 3.5 5.2 0.00 0.01 0.01 94 1008.5
20260506010956 50 8 5.2 8.7 0.00 0.01 0.01 93 1008.6
20260506010455 50 13 2.6 3.5 0.00 0.01 0.01 93 1008.2
20260506005951 50 47 0.9 1.7 0.00 0.01 0.01 94 1008.1
20260506005449 50 347 5.2 7.8 0.00 0.01 0.01 93 1008.1
20260506004944 50 350 1.7 3.5 0.00 0.01 0.01 93 1008.1
20260506004442 50 25 2.6 5.2 0.00 0.01 0.01 94 1008.5
20260506003938 50 22 6.1 7.8 0.00 0.01 0.01 94 1008.3
20260506003435 50 12 3.5 6.1 0.00 0.01 0.01 94 1008.3
20260506002931 50 27 4.3 6.1 0.00 0.01 0.01 94 1008.2
20260506002427 50 11 4.3 6.1 0.00 0.01 0.01 94 1007.8
20260506001922 51 354 5.2 7.0 0.00 0.01 0.01 94 1007.7
20260506001420 51 22 4.3 7.8 0.00 0.01 0.01 94 1007.9
20260506000917 51 7 2.6 5.2 0.00 0.01 0.01 94 1007.7
20260506000416 51 40 1.7 2.6 0.00 0.01 0.01 94 1007.7
20260505235911 51 3 5.2 6.1 0.00 0.01 0.01 94 1007.6
20260505235409 52 326 3.5 5.2 0.00 0.01 0.01 94 1007.7
20260505234906 52 5 4.3 5.2 0.00 0.01 0.01 94 1007.6
20260505234403 52 311 6.1 7.8 0.00 0.01 0.01 94 1007.7
20260505233900 53 304 2.6 2.6 0.00 0.01 0.01 94 1007.3
20260505233358 53 49 6.1 7.8 0.00 0.01 0.01 93 1006.9
20260505232855 53 61 4.3 7.0 0.00 0.01 0.01 94 1007.0
20260505232353 53 321 2.6 2.6 0.00 0.01 0.01 94 1006.9
20260505231849 54 27 3.5 6.1 0.00 0.01 0.01 93 1007.0
20260505231347 54 325 3.5 5.2 0.00 0.01 0.01 92 1007.1
20260505230845 54 30 5.2 7.8 0.00 0.01 0.01 92 1007.1
20260505230342 55 357 5.2 7.0 0.00 0.01 0.01 91 1007.0
20260505225839 55 330 2.6 2.6 0.00 0.01 0.01 90 1007.0
20260505225337 55 10 1.7 2.6 0.00 0.01 0.01 90 1006.8
20260505224836 55 356 2.6 3.5 0.00 0.01 0.01 90 1006.7
20260505224335 55 22 4.3 6.1 0.00 0.01 0.01 90 1006.0
20260505223831 55 33 6.1 7.0 0.00 0.01 0.01 89 1005.6
20260505223329 55 1 6.1 7.0 0.00 0.01 0.01 90 1006.0
20260505222824 56 359 7.0 7.8 0.00 0.01 0.01 90 1006.6
20260505222320 56 358 6.1 7.0 0.00 0.01 0.01 89 1006.8
20260505221818 56 7 4.3 6.1 0.00 0.01 0.01 89 1007.0
20260505221314 57 322 2.6 2.6 0.00 0.01 0.01 89 1006.8
20260505220812 57 355 4.3 6.1 0.00 0.01 0.01 89 1006.5
20260505220308 57 32 2.6 3.5 0.00 0.01 0.01 89 1006.1
20260505215807 57 18 4.3 5.2 0.00 0.01 0.01 89 1006.0
20260505215305 58 24 3.5 5.2 0.00 0.01 0.01 89 1005.8
20260505214802 58 54 1.7 2.6 0.00 0.01 0.01 89 1005.6
20260505214259 58 337 7.8 12.2 0.00 0.01 0.01 88 1005.5
20260505213756 58 14 3.5 6.1 0.00 0.01 0.01 89 1005.7
20260505213254 59 12 4.3 7.0 0.00 0.01 0.01 88 1005.7
20260505212749 59 5 4.3 6.1 0.00 0.01 0.01 89 1006.0
20260505212247 59 15 7.0 9.6 0.00 0.01 0.01 89 1006.1
20260505211743 59 329 4.3 6.1 0.00 0.01 0.01 89 1006.3
20260505211241 59 7 3.5 5.2 0.00 0.01 0.01 89 1005.9
20260505210737 59 336 5.2 7.0 0.00 0.01 0.01 89 1005.7
20260505210234 60 29 4.3 6.1 0.00 0.01 0.01 88 1005.6
20260505205732 60 308 3.5 3.5 0.00 0.01 0.01 87 1005.5
20260505205230 61 346 5.2 6.1 0.00 0.01 0.01 87 1005.3
20260505204726 61 350 5.2 7.0 0.00 0.01 0.01 86 1005.2
20260505204224 61 15 4.3 6.1 0.00 0.01 0.01 86 1005.2
20260505203721 62 9 2.6 3.5 0.00 0.01 0.01 85 1005.7
20260505203218 62 47 0.0 0.9 0.00 0.01 0.01 85 1005.5
20260505202713 62 44 0.9 1.7 0.00 0.01 0.01 85 1005.4
20260505202210 61 15 1.7 2.6 0.00 0.01 0.01 86 1005.5
20260505201706 61 309 1.7 1.7 0.00 0.01 0.01 87 1005.7
20260505201204 61 23 3.5 6.1 0.00 0.01 0.01 88 1005.5
20260505200702 60 350 4.3 7.8 0.00 0.01 0.01 89 1005.6
20260505200159 61 42 4.3 5.2 0.00 0.01 0.01 88 1005.6
20260505195654 61 350 1.7 1.7 0.00 0.01 0.01 87 1005.7
20260505195152 62 24 6.1 7.8 0.00 0.01 0.01 86 1005.6
20260505194649 62 22 6.1 8.7 0.00 0.01 0.01 87 1005.6
20260505194145 62 351 5.2 7.8 0.00 0.01 0.01 87 1005.4
20260505193642 62 28 9.6 12.2 0.00 0.01 0.01 87 1005.4
20260505193139 62 355 9.6 12.2 0.00 0.01 0.01 88 1005.5
20260505192638 63 339 8.7 11.3 0.00 0.01 0.01 88 1005.0
20260505192134 64 342 7.0 8.7 0.00 0.01 0.01 87 1004.8
20260505191633 68 7 6.1 8.7 0.00 0.01 0.01 85 1003.9
20260505191131 75 190 6.1 7.8 0.00 0.01 0.01 77 1004.0
20260505190626 74 157 5.2 7.0 0.00 0.01 0.01 76 1004.1
20260505190121 73 166 3.5 3.5 0.00 0.01 0.01 78 1004.5
20260505185618 73 211 1.7 1.7 0.00 0.01 0.01 77 1004.2
20260505185114 72 184 4.3 5.2 0.00 0.01 0.01 81 1004.3
20260505184611 74 117 1.7 1.7 0.00 0.01 0.01 78 1004.4
20260505184108 75 105 4.3 7.0 0.00 0.01 0.01 77 1004.2
20260505183604 74 205 2.6 5.2 0.00 0.01 0.01 80 1004.2
20260505183103 74 109 7.8 8.7 0.00 0.01 0.01 77 1004.3
20260505182558 74 175 6.1 8.7 0.00 0.01 0.01 78 1004.2
20260505182055 73 93 4.3 5.2 0.00 0.01 0.01 78 1004.6
20260505181553 73 185 6.1 8.7 0.00 0.01 0.01 80 1004.6
20260505181050 72 161 8.7 9.6 0.00 0.01 0.01 81 1004.5
20260505180545 73 203 0.9 1.7 0.00 0.01 0.01 80 1004.6
20260505180044 73 172 1.7 1.7 0.00 0.01 0.01 79 1004.5
20260505175543 73 136 2.6 2.6 0.00 0.01 0.01 80 1004.5
20260505175040 72 197 1.7 2.6 0.00 0.01 0.01 81 1004.5
20260505174537 71 174 4.3 7.0 0.00 0.01 0.01 82 1004.6
20260505174033 71 183 6.1 8.7 0.00 0.01 0.01 81 1004.3
20260505173530 71 125 1.7 1.7 0.00 0.01 0.01 81 1004.2
20260505173027 71 166 2.6 3.5 0.00 0.01 0.01 82 1004.6
20260505172525 71 154 2.6 3.5 0.00 0.01 0.01 82 1004.6
20260505172021 72 126 2.6 5.2 0.00 0.01 0.01 80 1004.5
20260505171516 72 135 5.2 6.1 0.00 0.01 0.01 80 1004.5
20260505171013 72 159 7.8 11.3 0.00 0.01 0.01 80 1004.5
20260505170505 72 137 4.3 6.1 0.00 0.01 0.01 79 1004.6
20260505170001 73 129 5.2 7.8 0.00 0.01 0.01 77 1004.5
20260505165456 73 194 3.5 7.0 0.00 0.01 0.01 78 1004.5
20260505164952 72 174 1.7 2.6 0.00 0.01 0.01 79 1004.5
20260505164448 72 161 1.7 3.5 0.00 0.01 0.01 81 1004.8
20260505163946 71 177 3.5 5.2 0.00 0.01 0.01 80 1004.7
20260505163444 71 135 4.3 5.2 0.00 0.01 0.01 80 1004.8
20260505162944 71 134 4.3 6.1 0.00 0.01 0.01 81 1004.4
20260505162439 71 155 1.7 2.6 0.00 0.01 0.01 81 1004.5
20260505161936 72 213 6.1 7.0 0.00 0.01 0.01 79 1004.5
20260505161433 72 159 2.6 6.1 0.00 0.01 0.01 79 1004.5
20260505160930 73 133 4.3 6.1 0.00 0.01 0.01 78 1004.4
20260505160429 72 148 3.5 3.5 0.00 0.01 0.01 80 1004.2
20260505152904 70 99 4.3 8.7 0.00 0.01 0.01 81 1004.0
20260505152402 70 191 6.1 12.2 0.00 0.01 0.01 81 1003.9
20260505151901 70 173 5.2 7.0 0.00 0.01 0.01 81 1003.9
20260505151358 69 183 3.5 5.2 0.00 0.01 0.01 83 1004.0
20260505150849 68 104 7.0 7.8 0.00 0.01 0.01 84 1003.9
20260505150347 68 163 3.5 5.2 0.00 0.01 0.01 84 1004.1
20260505140317 66 145 1.7 1.7 0.00 0.01 0.01 88 1004.7
20260505130240 64 166 0.9 1.7 0.00 0.01 0.01 91 1004.9
20260505124731 63 144 1.7 2.6 0.00 0.01 0.01 91 1004.9
20260505124227 63 161 0.0 0.0 0.00 0.01 0.01 92 1004.9
20260505123722 63 166 0.9 0.9 0.00 0.01 0.01 92 1005.1
20260505123220 62 173 1.7 2.6 0.00 0.01 0.01 92 1004.9
20260505122716 62 118 1.7 1.7 0.00 0.01 0.01 92 1004.8
20260505122214 62 137 0.0 0.9 0.00 0.01 0.01 92 1005.0
20260505121710 62 127 2.6 2.6 0.00 0.01 0.01 92 1005.0
20260505121207 62 134 4.3 5.2 0.00 0.01 0.01 92 1005.0
20260505120703 62 97 4.3 6.1 0.00 0.01 0.01 92 1004.9
20260505120159 62 112 3.5 5.2 0.00 0.01 0.01 92 1005.0
20260505115652 62 84 1.7 1.7 0.00 0.01 0.01 92 1005.0
20260505115151 62 97 3.5 5.2 0.00 0.01 0.01 92 1005.0
20260505114648 62 147 0.9 1.7 0.00 0.01 0.01 93 1004.8
20260505114144 62 53 3.5 5.2 0.00 0.01 0.01 93 1004.9
20260505113640 62 128 3.5 3.5 0.00 0.01 0.01 93 1004.8
20260505113137 62 192 2.6 6.1 0.00 0.01 0.01 93 1004.8
20260505112633 62 113 2.6 2.6 0.00 0.01 0.01 93 1004.9
20260505112132 62 148 3.5 3.5 0.00 0.01 0.01 93 1004.9
20260505111631 62 113 0.9 1.7 0.00 0.01 0.01 93 1004.8
20260505111127 62 141 3.5 5.2 0.00 0.01 0.01 93 1004.8
20260505110624 62 72 2.6 3.5 0.00 0.01 0.01 93 1004.8
20260505110121 62 137 0.0 0.9 0.07 0.01 0.01 93 1004.6
20260505102056 62 92 3.5 7.0 0.00 0.00 0.00 94 1004.3
20260505101555 62 74 1.7 1.7 0.00 0.00 0.00 94 1004.5
20260505101051 62 37 0.9 0.9 0.00 0.00 0.00 94 1004.8
20260505100548 62 92 1.7 2.6 0.00 0.00 0.00 94 1004.9
20260505100045 62 59 0.9 1.7 0.00 0.00 0.00 94 1004.8
20260505095541 62 77 0.9 1.7 0.00 0.00 0.00 94 1004.8
20260505095037 62 39 1.7 1.7 0.00 0.00 0.00 94 1004.9
20260505094534 62 98 3.5 3.5 0.00 0.00 0.00 94 1004.7
20260505094030 62 133 1.7 2.6 0.00 0.00 0.00 94 1005.0
20260505093527 62 135 0.0 0.0 0.00 0.00 0.00 94 1005.0
20260505093024 62 137 0.9 0.9 0.00 0.00 0.00 94 1005.1
20260505092521 62 94 2.6 2.6 0.00 0.00 0.00 93 1005.0
20260505092020 62 31 1.7 3.5 0.00 0.00 0.00 93 1005.1
20260505091516 62 48 1.7 2.6 0.00 0.00 0.00 93 1005.0
20260505091014 62 89 2.6 2.6 0.00 0.00 0.00 93 1005.1
20260505090512 62 125 0.9 0.9 0.00 0.00 0.00 93 1004.9
20260505090010 62 57 1.7 1.7 0.00 0.00 0.00 93 1004.9
20260505085508 62 21 2.6 2.6 0.00 0.00 0.00 93 1004.8
20260505085005 62 85 0.9 1.7 0.00 0.00 0.00 92 1004.8
20260505084504 62 90 3.5 5.2 0.00 0.00 0.00 92 1004.8
20260505084001 63 48 1.7 2.6 0.00 0.00 0.00 91 1004.9
20260505083458 63 343 5.2 7.0 0.00 0.00 0.00 90 1005.1
20260505082954 63 348 5.2 7.8 0.00 0.00 0.00 89 1005.0
20260505082450 63 35 4.3 5.2 0.00 0.00 0.00 88 1004.9
20260505081947 64 39 1.7 3.5 0.00 0.00 0.00 87 1005.0
20260505081444 65 309 3.5 5.2 0.00 0.00 0.00 85 1005.4
20260505080940 65 329 6.1 7.0 0.00 0.00 0.00 84 1005.3
20260505080436 65 339 6.1 8.7 0.00 0.00 0.00 82 1004.1
20260505075932 64 1 9.6 11.3 0.00 0.00 0.00 84 1003.6
20260505075429 64 303 9.6 13.9 0.00 0.00 0.00 85 1003.2
20260505074927 64 321 6.1 7.8 0.00 0.00 0.00 83 1003.5
20260505074424 64 303 3.5 5.2 0.00 0.00 0.00 84 1002.9
20260505073921 64 284 0.9 1.7 0.00 0.00 0.00 83 1002.3
20260505073419 64 275 2.6 3.5 0.00 0.00 0.00 83 1002.5
20260505072916 64 128 4.3 6.1 0.00 0.00 0.00 82 1001.9
20260505072411 65 136 1.7 2.6 0.00 0.00 0.00 81 1002.5
20260505071908 65 158 1.7 2.6 0.00 0.00 0.00 80 1003.0
20260505071404 65 146 5.2 8.7 0.00 0.00 0.00 79 1003.0
20260505070902 66 123 6.1 7.0 0.00 0.00 0.00 80 1003.1
20260505070358 66 110 4.3 7.0 0.00 0.00 0.00 78 1003.7
20260505065854 66 132 2.6 2.6 0.00 0.00 0.00 78 1004.2
20260505065351 66 11 5.2 7.0 0.00 0.00 0.00 77 1004.6
20260505064848 67 266 0.9 1.7 0.00 0.00 0.00 75 1005.0
20260505064345 67 163 0.0 0.9 0.00 0.00 0.00 73 1004.6
20260505063843 67 198 1.7 1.7 0.00 0.00 0.00 75 1004.5
20260505063339 67 170 5.2 7.0 0.00 0.00 0.00 74 1004.5
20260505062836 66 159 2.6 3.5 0.00 0.00 0.00 77 1004.3
20260505062333 66 165 4.3 6.1 0.00 0.00 0.00 75 1004.3
20260505061830 66 167 1.7 2.6 0.00 0.00 0.00 74 1004.5
20260505061328 67 147 1.7 1.7 0.00 0.00 0.00 74 1005.0
20260505060825 67 147 3.5 5.2 0.00 0.00 0.00 72 1004.9
20260505060322 68 135 1.7 1.7 0.00 0.00 0.00 70 1004.8
20260505055817 68 251 1.7 1.7 0.00 0.00 0.00 69 1005.2